Location: Penum?ka
(16.4840°N, 80.5772°E)
Time: 14:57:49
(UTC+00:00)

Meteor 2-3 Rocket - Pass Details

Date: 19 May 2025
Orbit: 840 x 885 km, 81.2° (Epoch: 17 June)

Event Time Altitude Azimuth Distance (km) Brightness Sun altitude
Rises 13:47:45 0° 351° (N) 3,470 7.4 -10.8°
Reaches altitude 10° 13:50:11 10° 350° (N) 2,535 6.7 -11.4°
Maximum altitude 13:55:57 76° 266° (W) 910 4.0 -12.6°
Drops below altitude 10° 14:01:44 10° 180° (S) 2,538 5.9 -13.8°
Sets 14:04:10 0° 179° (S) 3,474 6.6 -14.4°
